This is the latest recevied weather packets stored in our database for station/object OM6ABF-12. If no packets are shown the sender has not sent any weather packets the latest 10 day(s).
| Time | Temp. | Humidity | Pressure | Rain* | Wind** | Luminosity | Snow |
|---|---|---|---|---|---|---|---|
| 1777441523 | 0.56° C | 39% | 1029.3 hPa | - | - | - | - |
| 1777440564 | 0° C | 41% | 1029.2 hPa | - | - | - | - |
| 1777439606 | 0° C | 41% | 1028.9 hPa | - | - | - | - |
| 1777438657 | -0.56° C | 40% | 1029 hPa | - | - | - | - |
| 1777437692 | -1.11° C | 41% | 1028.8 hPa | - | - | - | - |
| 1777436734 | -1.11° C | 42% | 1028.7 hPa | - | - | - | - |
| 1777435776 | -1.67° C | 42% | 1028.7 hPa | - | - | - | - |
| 1777434819 | -1.67° C | 43% | 1028.6 hPa | - | - | - | - |
| 1777433862 | -2.22° C | 43% | 1028.5 hPa | - | - | - | - |
| 1777432904 | -2.22° C | 43% | 1028.5 hPa | - | - | - | - |
| 1777431946 | -1.67° C | 43% | 1028.5 hPa | - | - | - | - |
| 1777430990 | -1.67° C | 42% | 1028.5 hPa | - | - | - | - |
| 1777430033 | -1.67° C | 42% | 1028.4 hPa | - | - | - | - |
| 1777429077 | -1.67° C | 42% | 1028.6 hPa | - | - | - | - |
| 1777428120 | -1.67° C | 41% | 1028.5 hPa | - | - | - | - |
| 1777427162 | -1.67° C | 40% | 1028.5 hPa | - | - | - | - |
| 1777426205 | -1.67° C | 40% | 1028.5 hPa | - | - | - | - |
| 1777425250 | -1.11° C | 39% | 1028.4 hPa | - | - | - | - |
| 1777424294 | -1.11° C | 39% | 1028.4 hPa | - | - | - | - |
| 1777423338 | -1.11° C | 38% | 1028.5 hPa | - | - | - | - |
| 1777422382 | -1.11° C | 40% | 1028.4 hPa | - | - | - | - |
| 1777421424 | -1.11° C | 39% | 1028.5 hPa | - | - | - | - |
| 1777420468 | -1.11° C | 39% | 1028.4 hPa | - | - | - | - |
| 1777419511 | -0.56° C | 39% | 1028.4 hPa | - | - | - | - |
| 1777418553 | -0.56° C | 39% | 1028.4 hPa | - | - | - | - |
* Rain since midnight (hover to see other rain measurements)
** Current wind speed in m/s (hover to see current wind gust speed)